Total_Precipitation_Accumulation
0.26 0.49 0.63 0.56 0.32 0.20 0.01 0.00 0.00 0.01 0.04 0.05 0.03 0.01 0.01 0.01 0.01 0.01 0.01 0.00 0.00 0.00 0.01 0.01 0.01 0.01 0.01 0.00 0.01 0.00 0.02 0.05 0.07 0.14 0.16 0.21 0.14 0.04 0.03 0.02 0.02 0.02 0.01 0.03 0.03 0.02 0.02 0.01 0.01
0.53 0.65 0.74 0.56 0.35 0.12 0.01 0.00 0.00 0.02 0.01 0.04 0.05 0.03 0.03 0.01 0.00 0.02 0.03 0.01 0.00 0.00 0.01 0.01 0.02 0.01 0.00 0.01 0.01 0.01 0.04 0.08 0.09 0.15 0.25 0.32 0.05 0.01 0.03 0.01 0.02 0.03 0.02 0.02 0.01 0.00 0.01 0.00 0.00
0.66 0.80 0.86 0.75 0.35 0.08 0.00 0.00 0.00 0.00 0.01 0.02 0.05 0.04 0.04 0.01 0.00 0.01 0.02 0.03 0.00 0.00 0.01 0.01 0.02 0.01 0.01 0.01 0.01 0.02 0.05 0.12 0.15 0.24 0.32 0.17 0.04 0.03 0.02 0.00 0.02 0.03 0.01 0.01 0.01 0.01 0.00 0.00 0.00
0.76 1.07 1.53 0.85 0.42 0.05 0.00 0.00 0.00 0.00 0.03 0.04 0.11 0.16 0.07 0.02 0.01 0.01 0.02 0.03 0.01 0.01 0.01 0.02 0.02 0.01 0.01 0.01 0.01 0.04 0.05 0.08 0.16 0.23 0.22 0.06 0.05 0.03 0.00 0.00 0.01 0.01 0.01 0.01 0.01 0.00 0.00 0.00 0.00
0.72 1.57 1.22 0.93 0.43 0.11 0.00 0.00 0.00 0.00 0.02 0.07 0.16 0.24 0.16 0.11 0.07 0.03 0.03 0.02 0.01 0.02 0.02 0.03 0.03 0.01 0.01 0.01 0.02 0.05 0.05 0.08 0.15 0.20 0.13 0.04 0.05 0.01 0.00 0.00 0.00 0.01 0.01 0.01 0.01 0.00 0.00 0.00 0.00
1.00 1.31 1.41 0.74 0.34 0.10 0.03 0.00 0.00 0.00 0.00 0.02 0.14 0.30 0.46 0.41 0.31 0.18 0.04 0.01 0.01 0.01 0.03 0.04 0.04 0.01 0.01 0.01 0.03 0.05 0.06 0.12 0.19 0.19 0.09 0.04 0.03 0.00 0.00 0.00 0.01 0.01 0.01 0.02 0.00 0.00 0.00 0.00 0.00
1.00 0.87 1.36 0.58 0.21 0.12 0.07 0.02 0.03 0.04 0.01 0.01 0.11 0.36 0.58 0.80 0.74 0.43 0.12 0.05 0.03 0.03 0.03 0.05 0.03 0.01 0.01 0.02 0.04 0.05 0.06 0.11 0.18 0.14 0.04 0.02 0.00 0.00 0.00 0.00 0.02 0.01 0.02 0.01 0.00 0.00 0.00 0.00 0.00
0.82 1.29 0.52 0.68 0.17 0.11 0.07 0.04 0.02 0.06 0.06 0.01 0.09 0.38 0.81 1.25 1.17 0.72 0.45 0.16 0.08 0.07 0.05 0.03 0.02 0.01 0.03 0.03 0.04 0.04 0.03 0.07 0.11 0.07 0.01 0.00 0.00 0.00 0.01 0.01 0.02 0.03 0.01 0.00 0.00 0.00 0.00 0.00 0.00
0.93 1.43 0.57 0.30 0.28 0.09 0.08 0.25 0.03 0.03 0.14 0.05 0.06 0.18 0.47 1.45 1.85 1.19 0.74 0.47 0.22 0.16 0.06 0.03 0.00 0.00 0.03 0.04 0.04 0.04 0.03 0.04 0.03 0.00 0.00 0.00 0.00 0.00 0.00 0.01 0.02 0.03 0.01 0.00 0.00 0.00 0.00 0.00 0.00
1.08 0.97 0.54 0.22 0.31 0.22 0.21 0.38 0.17 0.09 0.15 0.35 0.19 0.16 0.49 1.56 2.44 1.72 1.03 0.56 0.31 0.19 0.11 0.03 0.00 0.01 0.02 0.04 0.04 0.04 0.03 0.04 0.02 0.00 0.00 0.00 0.00 0.00 0.00 0.01 0.03 0.03 0.00 0.00 0.00 0.00 0.00 0.00 0.00
1.06 0.62 0.49 0.37 0.39 0.35 0.22 0.16 0.21 0.25 0.17 0.34 0.18 0.31 0.73 1.44 3.66 3.08 2.07 1.07 0.78 0.37 0.16 0.06 0.01 0.01 0.02 0.02 0.03 0.04 0.03 0.03 0.01 0.00 0.00 0.00 0.00 0.00 0.00 0.01 0.02 0.01 0.00 0.00 0.00 0.00 0.00 0.00 0.00
1.08 0.73 0.59 0.58 0.65 0.43 0.23 0.16 0.14 0.15 0.04 0.11 0.58 0.55 0.85 1.04 3.74 4.43 4.70 3.61 2.12 1.33 0.40 0.07 0.03 0.03 0.02 0.02 0.03 0.03 0.02 0.02 0.00 0.00 0.00 0.00 0.00 0.00 0.00 0.00 0.00 0.00 0.00 0.00 0.00 0.00 0.00 0.00 0.00
1.13 1.08 0.56 0.57 0.50 0.43 0.16 0.19 0.12 0.04 0.03 0.19 0.39 0.60 0.63 1.19 1.80 3.53 3.62 4.45 3.07 2.20 1.41 0.31 0.05 0.09 0.06 0.03 0.02 0.02 0.02 0.02 0.00 0.00 0.00 0.00 0.00 0.00 0.00 0.00 0.00 0.00 0.00 0.00 0.00 0.00 0.00 0.00 0.00
1.07 1.32 0.68 0.56 0.47 0.28 0.15 0.04 0.07 0.07 0.12 0.40 0.35 0.55 0.77 0.91 1.23 2.01 2.25 2.68 2.76 2.28 2.07 1.44 0.19 0.07 0.11 0.06 0.02 0.01 0.01 0.01 0.00 0.00 0.00 0.00 0.00 0.00 0.00 0.00 0.00 0.00 0.00 0.00 0.00 0.00 0.00 0.00 0.00
0.65 1.33 0.94 0.54 0.67 0.24 0.13 0.05 0.04 0.03 0.18 0.50 0.63 0.69 1.29 0.92 0.94 1.51 1.46 1.76 1.67 1.65 1.58 1.69 0.79 0.10 0.11 0.09 0.06 0.04 0.01 0.01 0.00 0.00 0.00 0.00 0.00 0.00 0.00 0.00 0.00 0.00 0.00 0.00 0.00 0.00 0.00 0.00 0.00
0.21 1.00 1.30 0.65 0.78 0.60 0.20 0.06 0.03 0.03 0.10 0.31 0.47 0.67 1.21 0.89 0.69 0.73 1.17 1.55 1.46 1.41 1.24 1.49 0.91 0.35 0.12 0.10 0.04 0.04 0.02 0.01 0.00 0.00 0.00 0.00 0.00 0.00 0.00 0.00 0.00 0.00 0.00 0.00 0.00 0.00 0.00 0.00 0.00
0.07 0.35 0.81 0.88 0.65 0.78 0.33 0.15 0.03 0.06 0.06 0.11 0.20 0.37 0.97 1.01 0.81 0.45 0.52 0.95 1.08 1.37 1.05 1.43 1.21 0.63 0.22 0.24 0.10 0.03 0.02 0.00 0.01 0.00 0.00 0.00 0.00 0.00 0.00 0.00 0.00 0.00 0.00 0.00 0.00 0.00 0.00 0.00 0.00
0.09 0.14 0.23 0.48 0.60 0.61 0.44 0.25 0.12 0.03 0.04 0.02 0.07 0.20 0.51 0.76 0.77 0.62 0.60 0.67 0.71 0.97 1.36 1.27 1.53 1.30 0.74 0.55 0.45 0.11 0.02 0.01 0.00 0.01 0.01 0.01 0.00 0.00 0.00 0.00 0.00 0.00 0.00 0.00 0.00 0.00 0.00 0.00 0.00
0.01 0.01 0.05 0.15 0.24 0.46 0.49 0.28 0.18 0.03 0.02 0.01 0.03 0.16 0.40 0.70 0.66 0.62 0.69 0.76 0.69 0.69 1.61 1.16 1.43 1.24 1.32 1.01 0.79 0.45 0.10 0.05 0.01 0.01 0.00 0.02 0.01 0.00 0.00 0.00 0.00 0.00 0.00 0.00 0.00 0.00 0.00 0.00 0.03
0.00 0.00 0.02 0.09 0.11 0.17 0.27 0.13 0.20 0.12 0.01 0.01 0.01 0.12 0.33 0.49 0.45 0.38 0.49 0.74 0.75 0.61 1.45 1.84 1.63 1.28 0.84 0.95 0.87 0.72 0.38 0.26 0.29 0.19 0.15 0.21 0.20 0.16 0.10 0.09 0.12 0.08 0.06 0.07 0.08 0.06 0.04 0.19 0.31
0.00 0.01 0.01 0.04 0.08 0.08 0.09 0.06 0.02 0.07 0.02 0.01 0.01 0.07 0.16 0.24 0.21 0.29 0.28 0.44 1.26 1.01 0.75 1.38 2.10 2.09 1.08 1.01 0.92 0.99 1.03 0.68 0.56 0.44 0.57 0.52 0.48 0.60 0.60 0.54 0.43 0.36 0.26 0.26 0.25 0.25 0.35 0.53 0.28
0.00 0.01 0.00 0.01 0.03 0.05 0.02 0.05 0.01 0.02 0.03 0.03 0.01 0.10 0.15 0.23 0.32 0.27 0.24 0.18 0.43 0.85 0.76 0.79 1.39 2.29 1.77 1.25 1.11 1.09 0.86 0.80 0.65 0.80 1.14 0.92 0.59 0.61 0.65 0.71 0.78 0.78 0.72 0.75 0.75 0.65 0.68 0.58 0.46
0.00 0.00 0.00 0.02 0.01 0.00 0.01 0.04 0.10 0.02 0.02 0.02 0.02 0.09 0.26 0.22 0.23 0.21 0.18 0.19 0.31 0.31 0.36 0.46 0.91 1.44 2.09 1.69 1.47 1.22 0.85 0.64 0.87 0.57 0.54 0.41 0.34 0.35 0.48 0.66 0.88 0.98 0.93 0.88 0.93 0.91 1.04 1.12 0.86
0.00 0.02 0.03 0.04 0.06 0.04 0.00 0.02 0.10 0.02 0.06 0.09 0.04 0.03 0.15 0.31 0.42 0.26 0.12 0.22 0.28 0.24 0.10 0.18 0.50 0.78 1.31 1.74 1.12 0.97 0.87 1.11 1.02 0.63 0.50 0.60 0.57 0.57 0.66 0.79 0.84 0.81 0.80 0.83 1.02 1.11 0.94 0.78 0.56
0.02 0.13 0.15 0.16 0.27 0.07 0.00 0.00 0.00 0.00 0.01 0.07 0.07 0.05 0.04 0.16 0.28 0.23 0.10 0.08 0.17 0.12 0.05 0.07 0.15 0.32 0.68 1.40 0.94 0.76 0.73 0.79 0.93 0.89 0.73 0.70 0.62 0.54 0.42 0.44 0.57 0.60 0.58 0.51 0.43 0.31 0.26 0.29 0.23
0.11 0.21 0.32 0.41 0.18 0.10 0.00 0.01 0.00 0.00 0.00 0.01 0.18 0.06 0.02 0.00 0.07 0.17 0.16 0.22 0.25 0.21 0.09 0.03 0.06 0.20 0.33 0.66 0.71 0.69 0.78 0.62 0.56 0.55 0.48 0.43 0.33 0.33 0.31 0.19 0.16 0.16 0.17 0.16 0.11 0.14 0.11 0.07 0.08
0.14 0.20 0.17 0.25 0.09 0.07 0.03 0.00 0.00 0.00 0.00 0.00 0.08 0.20 0.02 0.00 0.00 0.02 0.04 0.12 0.17 0.10 0.09 0.09 0.09 0.15 0.10 0.22 0.43 0.45 0.51 0.43 0.45 0.44 0.27 0.20 0.18 0.21 0.19 0.17 0.13 0.08 0.16 0.18 0.14 0.11 0.17 0.16 0.13
0.14 0.17 0.28 0.28 0.29 0.16 0.05 0.01 0.00 0.00 0.00 0.00 0.00 0.04 0.02 0.00 0.00 0.00 0.00 0.00 0.01 0.01 0.05 0.19 0.25 0.23 0.16 0.17 0.18 0.23 0.30 0.16 0.35 0.36 0.27 0.24 0.17 0.18 0.16 0.12 0.15 0.15 0.16 0.21 0.20 0.23 0.23 0.19 0.11
0.13 0.14 0.17 0.45 0.24 0.26 0.27 0.15 0.00 0.00 0.00 0.00 0.00 0.00 0.00 0.00 0.00 0.00 0.00 0.00 0.00 0.00 0.00 0.05 0.19 0.16 0.15 0.26 0.20 0.30 0.27 0.14 0.28 0.32 0.16 0.18 0.28 0.14 0.12 0.20 0.21 0.17 0.16 0.17 0.20 0.17 0.24 0.13 0.05
0.16 0.23 0.36 0.25 0.23 0.10 0.24 0.29 0.00 0.00 0.00 0.00 0.00 0.00 0.00 0.00 0.00 0.00 0.00 0.00 0.00 0.00 0.00 0.00 0.01 0.04 0.04 0.22 0.25 0.29 0.29 0.23 0.24 0.20 0.13 0.08 0.11 0.15 0.10 0.09 0.10 0.16 0.18 0.20 0.16 0.09 0.12 0.12 0.07